Starlink 11157

operational
NORAD ID: 60122 Int'l Des: 2024-118 Owner: SPXS Country: US Constellation: starlink
LEOCIRCULAR

Über Starlink 11157

Beschreibung wird geladen...

Live-Position

3D-Globus wird geladen...

Nächste Überflüge

Höhenverlauf

Altitude vs Time

uPlot chart will show altitude changes over time

Zweizeiliger Elementsatz

1 60122U 24118K 25351.03212053 -.00001030 00000-0 -36510-5 0 9995
2 60122 53.1591 268.5360 0000918 99.4791 260.6330 15.69704849 85011
Epoch: 17. Dez. 2025 • Age: 15 hours

Aktueller Status

Höhe 376.0 km
Geschwindigkeit 7.68 km/s
Subsatellitenpunkt -46.14°S, 108.59°W
Startdatum 24. Juni 2024
Alter 1.4 years
Typ internet

Technische Details

Klassifizierung Payload
Masse 960.00 kg
Trockenmasse 910.00 kg
Gesamtmasse 960.00 kg
Länge 0.30 m
Durchmesser 4.10 m
Spannweite 29.00 m
Form Box + pan
Hersteller SPXS
Bus-Typ Starlink V2MD
Phasenstatus In Orbit
Besitzer/Staat SPXS/US

Große Konstellationen

Loading constellations...